[[{"header":{"parameterUnit":"m.s-1","parameterCategory":1,"la1":30.2991,"la2":30.254,"lo1":-89.0895,"lo2":-89.0444,"dy":0.0017,"dx":0.0017,"nx":28,"ny":28,"refTime":"2025-07-09T03:00:00:Z","depth":0,"parameterNumber":2,"parameterNumberName":"U-component_of_WINDS"},"data":[0,0,0,0,0,0,0,0,0,0,0,0,0,0,0,0,0,0,0,0,0,0,0,0,0,0,0,0,0,0,0,0,0,0,0,0,0,0,0,0,0,0,0,0,0,0,0,0,0,0,0,0,0,0,0,0,0,0,2.0531,2.0533,0,2.0746,2.0748,2.0751,2.0829,2.0828,2.0827,2.0826,2.1048,2.1055,2.1061,0,0,0,0,0,0,0,0,0,0,0,0,0,2.019,2.0196,2.0531,2.0534,2.0536,2.0745,2.0748,2.0751,2.0829,2.0828,2.0827,2.0826,2.1046,2.1054,2.1062,0,0,0,0,0,0,0,0,0,0,0,0,0,2.0365,2.0198,2.053,2.06,2.0608,2.0745,2.0748,2.0752,2.0829,2.0828,2.0827,2.0826,2.1043,2.1053,2.1063,2.1146,0,0,2.1093,2.1097,0,0,0,0,0,0,0,0,2.0355,2.0377,2.0587,2.0596,2.0605,2.0759,2.071,2.0884,2.0829,2.0745,2.0826,2.0825,2.0953,2.097,2.1013,2.1157,2.1166,2.1094,2.11,2.1104,2.1107,0,0,0,0,0,0,0,2.0342,2.0368,2.0616,2.059,2.0601,2.0621,2.0645,2.0743,2.0853,2.0753,2.0759,2.0783,2.0958,2.1003,2.1019,2.1169,2.1094,2.1102,2.1108,2.1112,2.1392,2.1394,0,0,0,0,0,0,2.0318,2.0358,2.0609,2.0622,2.0475,2.0628,2.0655,2.0711,2.0852,2.0872,2.0784,2.0786,2.0987,2.1007,2.1027,2.1134,2.1104,2.1113,2.1119,2.1391,2.1393,2.1394,0,0,0,0,0,0,2.0311,2.034,2.0601,2.0492,2.0527,2.0635,2.0698,2.0716,2.0761,2.0876,2.0896,2.081,2.0987,2.1013,2.1116,2.1143,2.1118,2.1127,2.1389,2.1392,2.1394,2.1348,0,0,0,0,0,0,2.0301,2.0337,2.0369,2.0492,2.0532,2.0685,2.07,2.0721,2.0778,2.0783,2.0905,2.0925,2.0988,2.1101,2.1126,2.1156,2.1134,2.1387,2.139,2.1393,2.1347,2.1348,2.1349,0,0,0,0,0,2.0288,2.0348,2.037,2.04,2.0574,2.0686,2.0709,2.078,2.078,2.0813,2.0887,2.0921,2.1136,2.1111,2.1139,2.1173,2.1386,2.1389,2.1393,2.1347,2.1348,2.1349,0,0,0,0,0,0,2.0226,2.0365,2.0392,2.0493,2.0577,2.0699,2.0744,2.0779,2.0866,2.0867,2.0952,2.0979,2.1075,2.1135,2.1104,2.1261,2.1263,2.1272,2.1218,2.122,2.1221,2.1204,2.1143,0,0,0,0,0,2.0224,2.0302,2.042,2.0498,2.0539,2.0634,2.0685,2.0733,2.0824,2.086,2.0941,2.1028,2.1116,2.1172,2.1258,2.1357,2.1385,2.1394,2.1395,2.1395,2.1401,2.1458,2.1464,2.1406,2.1406,2.1405,0,0,2.022,2.0306,2.0351,2.0488,2.0559,2.0639,2.0663,2.0747,2.0807,2.0873,2.0975,2.1037,2.1141,2.1241,2.129,2.1294,2.1424,2.1399,2.1398,2.1405,2.1462,2.1467,2.1472,2.1408,2.1407,2.1407,0,0,2.0255,2.0327,2.04,2.0471,2.0578,2.0641,2.0658,2.0775,2.0819,2.0923,2.0974,2.1047,2.1196,2.1267,2.1323,2.1385,2.142,2.1412,2.1415,2.1469,2.1474,2.1478,2.15,2.1507,2.1418,2.1418,2.1418,0,2.0237,2.0359,2.0433,2.0514,2.0573,2.0636,2.0711,2.0776,2.0906,2.0945,2.0948,2.1136,2.121,2.1329,2.1344,2.1387,2.141,2.1397,2.1467,2.1472,2.1477,2.1499,2.1507,2.1416,2.1416,2.1417,2.1417,0,2.0331,2.0415,2.0462,2.0585,2.0649,2.0726,2.0813,2.087,2.0912,2.0975,2.1079,2.1171,2.1277,2.1309,2.1351,2.1434,2.1433,2.145,2.1454,2.148,2.1502,2.1511,2.1414,2.1414,2.1415,2.1415,0,0,2.0331,2.0495,2.0511,2.0568,2.0691,2.0757,2.0838,2.0942,2.0988,2.1076,2.1146,2.127,2.1287,2.1351,2.1402,2.1449,2.1492,2.1461,2.1465,2.1463,2.1589,2.1574,2.1583,2.1516,2.1518,2.152,2.158,0,2.0381,2.0527,2.0597,2.0713,2.0791,2.0853,2.0923,2.1006,2.1067,2.1144,2.1212,2.1298,2.1314,2.1353,2.1403,2.1476,2.1519,2.1473,2.1582,2.1585,2.1553,2.1594,2.1579,2.1632,2.1589,2.1591,2.1592,0,2.0459,2.0546,2.0669,2.0783,2.0819,2.088,2.0981,2.1053,2.1149,2.119,2.1261,2.1311,2.1398,2.1396,2.1519,2.1486,2.1535,2.1578,2.1582,2.1594,2.1589,2.1607,2.165,2.1657,2.1606,2.1605,2.1604,0,2.0446,2.0594,2.0687,2.0734,2.0869,2.0911,2.0969,2.1065,2.1122,2.1211,2.1249,2.1347,2.14,2.1475,2.155,2.1541,2.1665,2.1669,2.1701,2.1699,2.1724,2.1721,2.1774,2.1757,2.1756,2.1756,2.1756,0,2.0494,2.0566,2.0683,2.0739,2.0823,2.0903,2.0984,2.1047,2.1132,2.1202,2.1262,2.1327,2.1423,2.15,2.1559,2.1652,2.1675,2.1711,2.1726,2.1706,2.1701,2.1738,2.1736,2.1758,2.1758,2.1757,2.1757,0,2.0493,2.0573,2.0678,2.0798,2.083,2.0886,2.0989,2.1047,2.1111,2.12,2.1226,2.1327,2.1421,2.1503,2.1628,2.1668,2.1763,2.1781,2.173,2.1738,2.1766,2.1761,2.1844,2.1859,2.1831,2.1831,2.1831,0,2.0517,2.0575,2.0701,2.0752,2.081,2.0892,2.0951,2.1033,2.1092,2.1206,2.1251,2.1349,2.1432,2.158,2.1665,2.1761,2.1782,2.1804,2.1797,2.1774,2.1782,2.1777,2.1783,2.1804,2.1804,2.1804,2.1804,0,2.0553,2.059,2.0673,2.077,2.0839,2.092,2.1002,2.1041,2.1138,2.1202,2.1299,2.1363,2.1491,2.1588,2.1693,2.1754,2.1795,2.1806,2.1818,2.1797,2.1765,2.1782,2.1729,2.1803,2.1803,2.1803,2.1803,2.1803,2.0566,2.0619,2.0716,2.0807,2.0877,2.0953,2.1013,2.1085,2.1167,2.1277,2.132,2.1419,2.1515,2.166,2.1722,2.18,2.1807,2.1825,2.183,2.1833,2.1829,2.1753,2.182,2.182,2.182,2.182,2.1821,0,2.0604,2.0669,2.0752,2.0865,2.0936,2.0968,2.1061,2.1119,2.1205,2.129,2.1371,2.1482,2.1577,2.1669,2.1769,2.1815,2.1836,2.1838,2.1835,2.1849,2.1818,2.1797,2.1819,2.1819,2.1819,2.1819,2.1819,2.1819,2.0632,2.0725,2.0773,2.0902,2.0968,2.1064,2.1114,2.1185,2.1253,2.1375,2.1454,2.1513,2.1602,2.1709,2.1797,2.1822,2.1856,2.1853,2.1882,2.1852,2.1851,2.185,2.183,2.1859,2.1859,2.1907,2.1907,2.1907]},{"header":{"parameterUnit":"m.s-1","parameterCategory":1,"la1":30.2991,"la2":30.254,"lo1":-89.0895,"lo2":-89.0444,"dy":0.0017,"dx":0.0017,"nx":28,"ny":28,"refTime":"2025-07-09T03:00:00:Z","depth":0,"parameterNumber":3,"parameterNumberName":"V-component_of_WINDS"},"data":[0,0,0,0,0,0,0,0,0,0,0,0,0,0,0,0,0,0,0,0,0,0,0,0,0,0,0,0,0,0,0,0,0,0,0,0,0,0,0,0,0,0,0,0,0,0,0,0,0,0,0,0,0,0,0,0,0,0,5.8396,5.8398,0,5.8531,5.8532,5.8534,5.8515,5.8513,5.8511,5.8509,5.8636,5.8641,5.8647,0,0,0,0,0,0,0,0,0,0,0,0,0,5.8113,5.8118,5.8396,5.8398,5.84,5.853,5.8532,5.8534,5.8515,5.8513,5.851,5.8508,5.8634,5.864,5.8647,0,0,0,0,0,0,0,0,0,0,0,0,0,5.824,5.812,5.8396,5.8406,5.8409,5.853,5.8532,5.8535,5.8516,5.8513,5.8509,5.8506,5.8632,5.864,5.8648,5.8764,0,0,5.8673,5.8676,0,0,0,0,0,0,0,0,5.8233,5.825,5.8403,5.8406,5.8409,5.8503,5.8479,5.8611,5.8517,5.8475,5.8509,5.8505,5.8594,5.8605,5.8637,5.877,5.8776,5.8674,5.8679,5.8682,5.8684,0,0,0,0,0,0,0,5.8224,5.8244,5.8449,5.8405,5.8409,5.8401,5.8415,5.8504,5.8551,5.8478,5.8477,5.8494,5.8594,5.8629,5.864,5.8778,5.8673,5.8681,5.8686,5.8689,5.9012,5.9015,0,0,0,0,0,0,5.8214,5.8237,5.8445,5.8453,5.8311,5.8409,5.8425,5.8476,5.855,5.8558,5.8497,5.8493,5.8617,5.863,5.8644,5.8785,5.8682,5.869,5.8694,5.9008,5.9013,5.9017,0,0,0,0,0,0,5.8208,5.8233,5.8439,5.8345,5.8371,5.8417,5.8474,5.848,5.8515,5.8564,5.8571,5.8524,5.8615,5.8633,5.8735,5.8789,5.8693,5.8701,5.9004,5.901,5.9015,5.9068,0,0,0,0,0,0,5.82,5.8231,5.8278,5.8346,5.8376,5.8532,5.8478,5.8485,5.853,5.8526,5.8592,5.8599,5.8613,5.8723,5.8743,5.8799,5.8707,5.8999,5.9006,5.9013,5.9062,5.9075,5.9086,0,0,0,0,0,5.819,5.8285,5.828,5.8306,5.8437,5.8535,5.8551,5.8569,5.8535,5.8581,5.8612,5.8597,5.878,5.8734,5.8756,5.8815,5.8996,5.9004,5.9012,5.9056,5.9072,5.9086,0,0,0,0,0,0,5.8218,5.8295,5.829,5.8411,5.8467,5.8532,5.8591,5.8585,5.8649,5.8642,5.8658,5.8672,5.8776,5.8805,5.8753,5.8931,5.8883,5.8896,5.8908,5.8924,5.8936,5.8926,5.8714,0,0,0,0,0,5.8239,5.8316,5.8377,5.8478,5.8507,5.8544,5.8587,5.8596,5.8653,5.8676,5.8714,5.8767,5.8836,5.8882,5.8948,5.9066,5.9079,5.9117,5.9129,5.9139,5.915,5.9213,5.9231,5.9044,5.9044,5.9044,0,0,5.8282,5.8333,5.838,5.8485,5.853,5.8606,5.8564,5.8646,5.8701,5.8687,5.8787,5.8817,5.8877,5.8988,5.9038,5.9015,5.9204,5.9149,5.9157,5.9163,5.9224,5.9241,5.9257,5.905,5.9049,5.9048,0,0,5.84,5.8447,5.8537,5.8583,5.8652,5.8676,5.8697,5.8763,5.8783,5.8885,5.8875,5.8939,5.9059,5.9102,5.914,5.9273,5.9261,5.9294,5.9357,5.9419,5.9434,5.9447,5.9494,5.9511,5.9305,5.9305,5.9305,0,5.8444,5.8562,5.8582,5.8667,5.8712,5.8705,5.8794,5.8836,5.8922,5.8952,5.8926,5.9076,5.9115,5.9236,5.9269,5.9299,5.9322,5.9287,5.9431,5.9444,5.9456,5.9501,5.9519,5.9309,5.9308,5.9308,5.9308,0,5.8612,5.8693,5.8757,5.8844,5.8896,5.8982,5.9012,5.9062,5.9066,5.9092,5.9194,5.9241,5.9317,5.9346,5.935,5.9467,5.9451,5.9428,5.9379,5.9478,5.952,5.9537,5.9314,5.9313,5.9311,5.9311,0,0,5.8751,5.885,5.8872,5.8912,5.8987,5.9049,5.9133,5.9211,5.9253,5.9311,5.9381,5.9482,5.9462,5.9504,5.9512,5.9566,5.9668,5.9536,5.9537,5.9558,5.9799,5.9816,5.9836,5.966,5.9664,5.9666,5.9794,0,5.8876,5.903,5.905,5.9185,5.9259,5.9254,5.9327,5.9379,5.9405,5.9469,5.9496,5.9568,5.9536,5.9561,5.9615,5.9644,5.9716,5.9635,5.9723,5.9726,5.9709,5.9858,5.9877,5.9995,5.9811,5.9813,5.9816,0,5.9042,5.911,5.9253,5.9319,5.935,5.9417,5.9489,5.9552,5.9609,5.9624,5.9673,5.9673,5.9757,5.9706,5.982,5.9765,5.9801,5.9821,5.9826,5.9834,5.9777,5.9871,6.0033,6.0051,5.9842,5.984,5.9838,0,5.9129,5.9255,5.9358,5.9391,5.947,5.9516,5.9551,5.9606,5.9651,5.9713,5.9742,5.9812,5.985,5.9902,5.9921,5.9882,6.0034,5.9984,6.0046,6.0046,6.0079,6.0076,6.0249,6.0102,6.0102,6.0102,6.0101,0,5.9267,5.9354,5.9398,5.9461,5.9558,5.9579,5.9673,5.9705,5.9754,5.982,5.9818,5.9879,5.99,5.9964,5.9979,6.0071,6.0087,6.01,6.0102,6.01,6.0099,6.0124,6.0117,6.0106,6.0105,6.0104,6.0104,0,5.9381,5.9414,5.9525,5.9591,5.961,5.9678,5.9733,5.9792,5.9818,5.9901,5.9922,5.9961,6.0036,6.006,6.0149,6.0159,6.0266,6.0261,6.0248,6.0248,6.0309,6.0303,6.0505,6.0532,6.0367,6.0369,6.037,0,5.9466,5.9534,5.9609,5.9655,5.9693,5.9766,5.9814,5.9836,5.9884,5.9956,6.0005,6.0081,6.0142,6.0262,6.0296,6.0364,6.0361,6.0426,6.0371,6.0366,6.0361,6.0357,6.0364,6.0437,6.0438,6.044,6.0441,0,5.9615,5.9628,5.9698,5.9775,5.9832,5.9892,5.9949,5.9986,6.0016,6.007,6.0149,6.0197,6.029,6.0364,6.0434,6.0465,6.0458,6.0459,6.0476,6.0475,6.0464,6.0471,6.0277,6.0454,6.0452,6.0451,6.0451,6.045,5.9717,5.9777,5.984,5.9918,5.9964,6.0018,6.0077,6.0111,6.0179,6.0259,6.0267,6.0351,6.0406,6.0499,6.0534,6.0598,6.0579,6.0605,6.0611,6.0618,6.0623,6.0455,6.061,6.061,6.061,6.061,6.0609,0,5.9865,5.9906,5.9977,6.006,6.0121,6.0112,6.0175,6.0225,6.0302,6.0355,6.0416,6.0506,6.0578,6.0618,6.0689,6.0732,6.0731,6.075,6.0747,6.0754,6.0636,6.0613,6.0751,6.0751,6.0751,6.075,6.075,6.075,5.9949,6.0051,6.0072,6.0195,6.0233,6.032,6.0356,6.0405,6.0448,6.055,6.0611,6.0638,6.0685,6.076,6.0824,6.0833,6.0859,6.0881,6.0888,6.0777,6.0763,6.0749,6.0728,6.0887,6.0887,6.1002,6.1003,6.1003]}]]